| time (UTC) | temp F | wind direction | speed MPH | gust MPH | rain 1hr in | rain 24hr in | rain mn in | humidity % | barometer mb |
| 20260906220112 | 93 | 119 | 1.0 | 9.0 | 0.00 | 0.00 | 0.00 | 31 | 1000.4 |
| 20260906220031 | 94 | 119 | 2.0 | 9.0 | 0.00 | 0.00 | 0.00 | 31 | 1015.3 |
| 20260906215547 | 93 | 103 | 1.0 | 7.0 | 0.00 | 0.00 | 0.00 | 31 | 1000.5 |
| 20260906215526 | 94 | 167 | 2.0 | 7.0 | 0.00 | 0.00 | 0.00 | 30 | 1015.3 |
| 20260906215114 | 93 | 106 | 2.0 | 7.0 | 0.00 | 0.00 | 0.00 | 30 | 1000.6 |
| 20260906215049 | 94 | 55 | 3.0 | 7.0 | 0.00 | 0.00 | 0.00 | 30 | 1015.4 |
| 20260906214622 | 94 | 77 | 2.0 | 7.0 | 0.00 | 0.00 | 0.00 | 30 | 1000.6 |
| 20260906214550 | 94 | 34 | 2.0 | 7.0 | 0.00 | 0.00 | 0.00 | 30 | 1015.5 |
| 20260906214044 | 94 | 40 | 1.0 | 8.0 | 0.00 | 0.00 | 0.00 | 30 | 1015.7 |
| 20260906214016 | 94 | 40 | 1.0 | 8.0 | 0.00 | 0.00 | 0.00 | 30 | 1000.8 |
| 20260906213623 | 94 | 111 | 1.0 | 7.0 | 0.00 | 0.00 | 0.00 | 30 | 1000.8 |
| 20260906213538 | 95 | 80 | 2.0 | 5.0 | 0.00 | 0.00 | 0.00 | 29 | 1015.6 |
| 20260906213151 | 94 | 123 | 2.0 | 5.0 | 0.00 | 0.00 | 0.00 | 30 | 1000.8 |
| 20260906213106 | 95 | 19 | 2.0 | 5.0 | 0.00 | 0.00 | 0.00 | 29 | 1015.7 |
| 20260906212602 | 94 | 95 | 1.0 | 4.0 | 0.00 | 0.00 | 0.00 | 30 | 1000.9 |
| 20260906212541 | 94 | 115 | 1.0 | 3.0 | 0.00 | 0.00 | 0.00 | 30 | 1015.8 |
| 20260906212130 | 93 | 38 | 1.0 | 5.0 | 0.00 | 0.00 | 0.00 | 30 | 1001.0 |
| 20260906212034 | 94 | 66 | 2.0 | 5.0 | 0.00 | 0.00 | 0.00 | 30 | 1015.9 |
| 20260906211554 | 93 | 59 | 2.0 | 5.0 | 0.00 | 0.00 | 0.00 | 31 | 1001.1 |
| 20260906211529 | 93 | 66 | 3.0 | 5.0 | 0.00 | 0.00 | 0.00 | 30 | 1015.9 |
| 20260906211127 | 92 | 33 | 2.0 | 8.0 | 0.00 | 0.00 | 0.00 | 30 | 1001.2 |
| 20260906211052 | 93 | 33 | 2.0 | 8.0 | 0.00 | 0.00 | 0.00 | 31 | 1015.9 |
| 20260906210546 | 92 | 59 | 3.0 | 8.0 | 0.00 | 0.00 | 0.00 | 31 | 1016.0 |
| 20260906210519 | 92 | 59 | 3.0 | 8.0 | 0.00 | 0.00 | 0.00 | 31 | 1001.3 |
| 20260906210139 | 92 | 39 | 1.0 | 8.0 | 0.00 | 0.00 | 0.00 | 31 | 1001.3 |
| 20260906210040 | 92 | 39 | 2.0 | 8.0 | 0.00 | 0.00 | 0.00 | 31 | 1016.1 |
| 20260906205552 | 92 | 32 | 3.0 | 6.0 | 0.00 | 0.00 | 0.00 | 30 | 1001.5 |
| 20260906205533 | 92 | 40 | 3.0 | 6.0 | 0.00 | 0.00 | 0.00 | 30 | 1016.2 |
| 20260906205124 | 92 | 57 | 1.0 | 5.0 | 0.00 | 0.00 | 0.00 | 31 | 1001.6 |
| 20260906205101 | 92 | 80 | 1.0 | 5.0 | 0.00 | 0.00 | 0.00 | 32 | 1016.4 |
| 20260906204631 | 91 | 117 | 1.0 | 9.0 | 0.00 | 0.00 | 0.00 | 31 | 1001.7 |
| 20260906204536 | 92 | 170 | 1.0 | 9.0 | 0.00 | 0.00 | 0.00 | 31 | 1016.4 |
| 20260906204106 | 91 | 39 | 2.0 | 9.0 | 0.00 | 0.00 | 0.00 | 31 | 1002.0 |
| 20260906204030 | 91 | 65 | 3.0 | 9.0 | 0.00 | 0.00 | 0.00 | 31 | 1016.7 |
| 20260906203636 | 91 | 34 | 2.0 | 6.0 | 0.00 | 0.00 | 0.00 | 32 | 1002.0 |
| 20260906203554 | 92 | 78 | 3.0 | 6.0 | 0.00 | 0.00 | 0.00 | 32 | 1016.7 |
| 20260906203049 | 91 | 42 | 2.0 | 6.0 | 0.00 | 0.00 | 0.00 | 32 | 1002.0 |
| 20260906203026 | 91 | 42 | 2.0 | 6.0 | 0.00 | 0.00 | 0.00 | 32 | 1016.7 |
| 20260906202618 | 91 | 34 | 1.0 | 4.0 | 0.00 | 0.00 | 0.00 | 32 | 1002.0 |
| 20260906202549 | 91 | 35 | 1.0 | 4.0 | 0.00 | 0.00 | 0.00 | 33 | 1016.7 |
| 20260906202132 | 90 | 308 | 2.0 | 4.0 | 0.00 | 0.00 | 0.00 | 32 | 1002.1 |
| 20260906202054 | 91 | 36 | 2.0 | 4.0 | 0.00 | 0.00 | 0.00 | 33 | 1016.8 |
| 20260906201548 | 90 | 54 | 1.0 | 5.0 | 0.00 | 0.00 | 0.00 | 33 | 1016.8 |
| 20260906201523 | 90 | 54 | 1.0 | 5.0 | 0.00 | 0.00 | 0.00 | 33 | 1002.1 |
| 20260906201126 | 89 | 22 | 2.0 | 5.0 | 0.00 | 0.00 | 0.00 | 35 | 1002.2 |
| 20260906201038 | 90 | 46 | 2.0 | 5.0 | 0.00 | 0.00 | 0.00 | 34 | 1016.9 |
| 20260906200602 | 89 | 67 | 2.0 | 5.0 | 0.00 | 0.00 | 0.00 | 34 | 1002.2 |
| 20260906200532 | 89 | 67 | 3.0 | 5.0 | 0.00 | 0.00 | 0.00 | 34 | 1017.0 |
| 20260906200124 | 89 | 28 | 1.0 | 4.0 | 0.00 | 0.00 | 0.00 | 34 | 1002.4 |
| 20260906200028 | 89 | 53 | 1.0 | 4.0 | 0.00 | 0.00 | 0.00 | 34 | 1017.2 |
| 20260906195653 | 89 | 82 | 1.0 | 9.0 | 0.00 | 0.00 | 0.00 | 35 | 1002.4 |
| 20260906195531 | 89 | 62 | 2.0 | 9.0 | 0.00 | 0.00 | 0.00 | 34 | 1017.2 |
| 20260906195054 | 89 | 19 | 4.0 | 9.0 | 0.00 | 0.00 | 0.00 | 34 | 1017.2 |
| 20260906195027 | 89 | 18 | 4.0 | 9.0 | 0.00 | 0.00 | 0.00 | 34 | 1002.5 |
| 20260906194631 | 89 | 79 | 1.0 | 10.0 | 0.00 | 0.00 | 0.00 | 35 | 1002.6 |
| 20260906194551 | 89 | 46 | 2.0 | 10.0 | 0.00 | 0.00 | 0.00 | 35 | 1017.3 |
| 20260906194103 | 89 | 41 | 5.0 | 10.0 | 0.00 | 0.00 | 0.00 | 34 | 1002.7 |
| 20260906194047 | 89 | 31 | 5.0 | 10.0 | 0.00 | 0.00 | 0.00 | 34 | 1017.4 |
| 20260906193630 | 89 | 66 | 1.0 | 5.0 | 0.00 | 0.00 | 0.00 | 33 | 1002.8 |
| 20260906193545 | 89 | 208 | 2.0 | 5.0 | 0.00 | 0.00 | 0.00 | 33 | 1017.5 |
| 20260906193115 | 89 | 77 | 1.0 | 4.0 | 0.00 | 0.00 | 0.00 | 35 | 1017.6 |
| 20260906193004 | 88 | 63 | 1.0 | 4.0 | 0.00 | 0.00 | 0.00 | 36 | 1002.9 |
| 20260906192610 | 87 | 193 | 1.0 | 4.0 | 0.00 | 0.00 | 0.00 | 35 | 1002.9 |
| 20260906192549 | 88 | 184 | 2.0 | 4.0 | 0.00 | 0.00 | 0.00 | 36 | 1017.7 |
| 20260906192039 | 87 | 26 | 1.0 | 8.0 | 0.00 | 0.00 | 0.00 | 36 | 1017.8 |
| 20260906192004 | 87 | 76 | 1.0 | 8.0 | 0.00 | 0.00 | 0.00 | 36 | 1003.1 |
| 20260906191608 | 87 | 19 | 3.0 | 6.0 | 0.00 | 0.00 | 0.00 | 37 | 1003.2 |
| 20260906191535 | 87 | 333 | 4.0 | 6.0 | 0.00 | 0.00 | 0.00 | 37 | 1017.9 |
| 20260906191029 | 87 | 34 | 1.0 | 5.0 | 0.00 | 0.00 | 0.00 | 38 | 1018.0 |
| 20260906191005 | 87 | 34 | 1.0 | 5.0 | 0.00 | 0.00 | 0.00 | 38 | 1003.3 |
| 20260906190610 | 86 | 36 | 2.0 | 5.0 | 0.00 | 0.00 | 0.00 | 37 | 1003.3 |
| 20260906190534 | 87 | 69 | 3.0 | 5.0 | 0.00 | 0.00 | 0.00 | 38 | 1018.0 |
| 20260906190140 | 86 | 186 | 1.0 | 3.0 | 0.00 | 0.00 | 0.00 | 37 | 1003.3 |
| 20260906190057 | 86 | 138 | 1.0 | 3.0 | 0.00 | 0.00 | 0.00 | 37 | 1018.1 |
| 20260906185649 | 86 | 36 | 1.0 | 6.0 | 0.00 | 0.00 | 0.00 | 38 | 1003.4 |
| 20260906185538 | 86 | 71 | 1.0 | 6.0 | 0.00 | 0.00 | 0.00 | 39 | 1018.2 |
| 20260906185058 | 85 | 29 | 2.0 | 6.0 | 0.00 | 0.00 | 0.00 | 40 | 1003.5 |
| 20260906185031 | 86 | 24 | 3.0 | 6.0 | 0.00 | 0.00 | 0.00 | 40 | 1018.3 |
| 20260906184630 | 85 | 72 | 1.0 | 6.0 | 0.00 | 0.00 | 0.00 | 39 | 1003.5 |
| 20260906184528 | 85 | 312 | 2.0 | 6.0 | 0.00 | 0.00 | 0.00 | 40 | 1018.4 |
| 20260906184157 | 85 | 17 | 3.0 | 6.0 | 0.00 | 0.00 | 0.00 | 39 | 1003.6 |
| 20260906184054 | 86 | 31 | 4.0 | 6.0 | 0.00 | 0.00 | 0.00 | 39 | 1018.4 |
| 20260906183612 | 85 | 346 | 1.0 | 3.0 | 0.00 | 0.00 | 0.00 | 40 | 1003.7 |
| 20260906183543 | 86 | 25 | 2.0 | 3.0 | 0.00 | 0.00 | 0.00 | 39 | 1018.5 |
| 20260906183135 | 85 | 33 | 1.0 | 5.0 | 0.00 | 0.00 | 0.00 | 39 | 1003.9 |
| 20260906183039 | 85 | 130 | 1.0 | 5.0 | 0.00 | 0.00 | 0.00 | 39 | 1018.7 |
| 20260906182608 | 84 | 74 | 0.0 | 3.0 | 0.00 | 0.00 | 0.00 | 40 | 1004.0 |
| 20260906182534 | 85 | 74 | 1.0 | 3.0 | 0.00 | 0.00 | 0.00 | 40 | 1018.8 |
| 20260906182132 | 84 | 25 | 1.0 | 4.0 | 0.00 | 0.00 | 0.00 | 40 | 1004.1 |
| 20260906182040 | 85 | 64 | 1.0 | 4.0 | 0.00 | 0.00 | 0.00 | 41 | 1018.9 |
| 20260906181603 | 84 | 30 | 0.0 | 4.0 | 0.00 | 0.00 | 0.00 | 42 | 1004.3 |
| 20260906181537 | 85 | 30 | 1.0 | 4.0 | 0.00 | 0.00 | 0.00 | 42 | 1019.0 |
| 20260906181124 | 84 | 29 | 1.0 | 4.0 | 0.00 | 0.00 | 0.00 | 41 | 1004.4 |
| 20260906181032 | 85 | 190 | 2.0 | 4.0 | 0.00 | 0.00 | 0.00 | 41 | 1019.1 |
| 20260906180558 | 83 | 186 | 0.0 | 4.0 | 0.00 | 0.00 | 0.00 | 42 | 1004.3 |
| 20260906180528 | 84 | 185 | 1.0 | 4.0 | 0.00 | 0.00 | 0.00 | 42 | 1019.2 |
| 20260906180128 | 83 | 44 | 0.0 | 5.0 | 0.00 | 0.00 | 0.00 | 43 | 1004.5 |
| 20260906180053 | 83 | 44 | 1.0 | 5.0 | 0.00 | 0.00 | 0.00 | 43 | 1019.3 |
| 20260906175547 | 83 | 38 | 3.0 | 5.0 | 0.00 | 0.00 | 0.00 | 42 | 1019.4 |
| 20260906175522 | 83 | 39 | 2.0 | 5.0 | 0.00 | 0.00 | 0.00 | 42 | 1004.6 |
| 20260906175129 | 83 | 44 | 1.0 | 4.0 | 0.00 | 0.00 | 0.00 | 43 | 1004.6 |
| 20260906175042 | 83 | 34 | 2.0 | 4.0 | 0.00 | 0.00 | 0.00 | 43 | 1019.4 |
| 20260906174612 | 84 | 301 | 3.0 | 4.0 | 0.00 | 0.00 | 0.00 | 43 | 1019.5 |
| 20260906174507 | 83 | 29 | 1.0 | 3.0 | 0.00 | 0.00 | 0.00 | 44 | 1004.7 |
| 20260906174117 | 83 | 136 | 1.0 | 3.0 | 0.00 | 0.00 | 0.00 | 43 | 1004.8 |
| 20260906174041 | 83 | 136 | 1.0 | 3.0 | 0.00 | 0.00 | 0.00 | 43 | 1019.6 |
| 20260906173537 | 83 | 43 | 1.0 | 3.0 | 0.00 | 0.00 | 0.00 | 45 | 1019.7 |
| 20260906173508 | 82 | 36 | 1.0 | 3.0 | 0.00 | 0.00 | 0.00 | 45 | 1004.9 |
| 20260906173123 | 82 | 114 | 0.0 | 3.0 | 0.00 | 0.00 | 0.00 | 45 | 1005.0 |
| 20260906173033 | 82 | 114 | 0.0 | 3.0 | 0.00 | 0.00 | 0.00 | 45 | 1019.9 |
| 20260906172529 | 83 | 109 | 1.0 | 3.0 | 0.00 | 0.00 | 0.00 | 45 | 1019.9 |
| 20260906172505 | 82 | 94 | 1.0 | 3.0 | 0.00 | 0.00 | 0.00 | 45 | 1005.1 |
| 20260906172114 | 82 | 75 | 1.0 | 3.0 | 0.00 | 0.00 | 0.00 | 46 | 1005.2 |
| 20260906172054 | 82 | 42 | 1.0 | 3.0 | 0.00 | 0.00 | 0.00 | 47 | 1020.1 |
| 20260906171620 | 81 | 148 | 0.0 | 3.0 | 0.00 | 0.00 | 0.00 | 47 | 1005.4 |
| 20260906171600 | 81 | 190 | 0.0 | 3.0 | 0.00 | 0.00 | 0.00 | 47 | 1020.2 |
| 20260906171141 | 80 | 269 | 0.0 | 2.0 | 0.00 | 0.00 | 0.00 | 47 | 1005.4 |
| 20260906171106 | 81 | 61 | 1.0 | 2.0 | 0.00 | 0.00 | 0.00 | 47 | 1020.3 |
| 20260906170541 | 80 | 94 | 1.0 | 3.0 | 0.00 | 0.00 | 0.00 | 49 | 1020.3 |
| 20260906170512 | 80 | 97 | 1.0 | 3.0 | 0.00 | 0.00 | 0.00 | 49 | 1005.5 |
| 20260906170114 | 80 | 112 | 1.0 | 3.0 | 0.00 | 0.00 | 0.00 | 49 | 1005.6 |
| 20260906170032 | 80 | 112 | 1.0 | 3.0 | 0.00 | 0.00 | 0.00 | 49 | 1020.4 |
| 20260906165644 | 79 | 104 | 0.0 | 5.0 | 0.00 | 0.00 | 0.00 | 51 | 1005.6 |
| 20260906165552 | 79 | 104 | 1.0 | 5.0 | 0.00 | 0.00 | 0.00 | 51 | 1020.5 |
| 20260906165059 | 79 | 34 | 2.0 | 5.0 | 0.00 | 0.00 | 0.00 | 50 | 1005.8 |
| 20260906165026 | 79 | 32 | 2.0 | 5.0 | 0.00 | 0.00 | 0.00 | 51 | 1020.5 |
| 20260906164633 | 79 | 39 | 0.0 | 4.0 | 0.00 | 0.00 | 0.00 | 52 | 1005.7 |
| 20260906164551 | 79 | 78 | 1.0 | 4.0 | 0.00 | 0.00 | 0.00 | 52 | 1020.6 |
| 20260906164103 | 78 | 161 | 1.0 | 4.0 | 0.00 | 0.00 | 0.00 | 52 | 1005.8 |
| 20260906164046 | 78 | 161 | 1.0 | 4.0 | 0.00 | 0.00 | 0.00 | 52 | 1020.6 |
| 20260906163628 | 77 | 211 | 2.0 | 4.0 | 0.00 | 0.00 | 0.00 | 53 | 1005.8 |
| 20260906163541 | 78 | 203 | 2.0 | 4.0 | 0.00 | 0.00 | 0.00 | 53 | 1020.6 |
| 20260906163058 | 77 | 168 | 1.0 | 4.0 | 0.00 | 0.00 | 0.00 | 51 | 1005.8 |
| 20260906163035 | 78 | 159 | 1.0 | 4.0 | 0.00 | 0.00 | 0.00 | 51 | 1020.5 |
| 20260906162635 | 77 | 169 | 1.0 | 4.0 | 0.00 | 0.00 | 0.00 | 53 | 1005.7 |
| 20260906162557 | 77 | 209 | 1.0 | 4.0 | 0.00 | 0.00 | 0.00 | 53 | 1020.6 |
| 20260906162047 | 77 | 29 | 0.0 | 3.0 | 0.00 | 0.00 | 0.00 | 55 | 1005.7 |
| 20260906162030 | 77 | 135 | 0.0 | 3.0 | 0.00 | 0.00 | 0.00 | 55 | 1020.5 |
| 20260906161619 | 76 | 134 | 1.0 | 3.0 | 0.00 | 0.00 | 0.00 | 56 | 1005.7 |
| 20260906161554 | 77 | 130 | 2.0 | 3.0 | 0.00 | 0.00 | 0.00 | 56 | 1020.5 |
| 20260906161142 | 76 | 105 | 0.0 | 2.0 | 0.00 | 0.00 | 0.00 | 57 | 1005.7 |
| 20260906161048 | 76 | 105 | 1.0 | 2.0 | 0.00 | 0.00 | 0.00 | 58 | 1020.5 |
| 20260906160651 | 76 | 105 | 0.0 | 2.0 | 0.00 | 0.00 | 0.00 | 59 | 1005.7 |
| 20260906160547 | 76 | 104 | 1.0 | 2.0 | 0.00 | 0.00 | 0.00 | 59 | 1020.5 |
| 20260906160107 | 75 | 94 | 1.0 | 3.0 | 0.00 | 0.00 | 0.00 | 59 | 1005.8 |
| 20260906160050 | 75 | 94 | 1.0 | 3.0 | 0.00 | 0.00 | 0.00 | 59 | 1020.6 |
| 20260906155631 | 74 | 130 | 1.0 | 3.0 | 0.00 | 0.00 | 0.00 | 61 | 1005.7 |
| 20260906155546 | 75 | 168 | 1.0 | 3.0 | 0.00 | 0.00 | 0.00 | 61 | 1020.6 |
| 20260906155059 | 74 | 130 | 0.0 | 2.0 | 0.00 | 0.00 | 0.00 | 63 | 1005.7 |
| 20260906155043 | 74 | 130 | 0.0 | 2.0 | 0.00 | 0.00 | 0.00 | 63 | 1020.4 |
| 20260906154626 | 73 | 130 | 0.0 | 2.0 | 0.00 | 0.00 | 0.00 | 64 | 1005.7 |
| 20260906154539 | 73 | 5 | 1.0 | 2.0 | 0.00 | 0.00 | 0.00 | 64 | 1020.5 |
| 20260906154105 | 73 | 223 | 1.0 | 2.0 | 0.00 | 0.00 | 0.00 | 64 | 1020.6 |
| 20260906154002 | 72 | 204 | 0.0 | 2.0 | 0.00 | 0.00 | 0.00 | 65 | 1005.8 |
| 20260906153615 | 72 | 144 | 1.0 | 3.0 | 0.00 | 0.00 | 0.00 | 65 | 1005.9 |
| 20260906153538 | 72 | 360 | 1.0 | 3.0 | 0.00 | 0.00 | 0.00 | 65 | 1020.7 |
| 20260906153034 | 72 | 360 | 1.0 | 3.0 | 0.00 | 0.00 | 0.00 | 65 | 1020.6 |
| 20260906153008 | 72 | 360 | 1.0 | 3.0 | 0.00 | 0.00 | 0.00 | 65 | 1005.8 |
| 20260906152605 | 72 | 360 | 1.0 | 3.0 | 0.00 | 0.00 | 0.00 | 65 | 1006.0 |
| 20260906152528 | 72 | 360 | 1.0 | 3.0 | 0.00 | 0.00 | 0.00 | 66 | 1020.7 |
| 20260906152141 | 71 | 360 | 0.0 | 2.0 | 0.00 | 0.00 | 0.00 | 65 | 1006.0 |
| 20260906152052 | 72 | 360 | 0.0 | 2.0 | 0.00 | 0.00 | 0.00 | 66 | 1020.8 |
| 20260906151549 | 72 | 355 | 0.0 | 4.0 | 0.00 | 0.00 | 0.00 | 66 | 1020.8 |
| 20260906151522 | 71 | 355 | 0.0 | 4.0 | 0.00 | 0.00 | 0.00 | 66 | 1006.0 |
| 20260906151126 | 71 | 350 | 1.0 | 4.0 | 0.00 | 0.00 | 0.00 | 67 | 1006.1 |
| 20260906151045 | 72 | 360 | 1.0 | 3.0 | 0.00 | 0.00 | 0.00 | 66 | 1020.8 |
| 20260906150558 | 71 | 239 | 1.0 | 2.0 | 0.00 | 0.00 | 0.00 | 67 | 1006.1 |
| 20260906150542 | 71 | 179 | 1.0 | 2.0 | 0.00 | 0.00 | 0.00 | 67 | 1020.8 |
| 20260906150124 | 70 | 130 | 1.0 | 2.0 | 0.00 | 0.00 | 0.00 | 68 | 1006.1 |
| 20260906150038 | 71 | 132 | 1.0 | 2.0 | 0.00 | 0.00 | 0.00 | 68 | 1020.8 |
| 20260906145557 | 70 | 82 | 0.0 | 2.0 | 0.00 | 0.00 | 0.00 | 69 | 1006.1 |
| 20260906145534 | 70 | 96 | 0.0 | 2.0 | 0.00 | 0.00 | 0.00 | 69 | 1020.8 |
| 20260906145120 | 69 | 291 | 0.0 | 3.0 | 0.00 | 0.00 | 0.00 | 69 | 1006.1 |
| 20260906145028 | 70 | 257 | 0.0 | 3.0 | 0.00 | 0.00 | 0.00 | 69 | 1020.7 |
| 20260906144549 | 69 | 212 | 1.0 | 3.0 | 0.00 | 0.00 | 0.00 | 70 | 1020.7 |
| 20260906144521 | 69 | 212 | 0.0 | 2.0 | 0.00 | 0.00 | 0.00 | 70 | 1006.0 |
| 20260906144123 | 68 | 53 | 0.0 | 2.0 | 0.00 | 0.00 | 0.00 | 71 | 1006.0 |
| 20260906144042 | 69 | 76 | 0.0 | 1.0 | 0.00 | 0.00 | 0.00 | 72 | 1020.7 |
| 20260906143537 | 68 | 346 | 0.0 | 2.0 | 0.00 | 0.00 | 0.00 | 73 | 1020.7 |
| 20260906143516 | 68 | 346 | 0.0 | 2.0 | 0.00 | 0.00 | 0.00 | 73 | 1006.0 |
| 20260906143119 | 67 | 346 | 0.0 | 2.0 | 0.00 | 0.00 | 0.00 | 73 | 1006.0 |
| 20260906143033 | 68 | 346 | 1.0 | 2.0 | 0.00 | 0.00 | 0.00 | 73 | 1020.7 |
| 20260906142550 | 67 | 127 | 0.0 | 2.0 | 0.00 | 0.00 | 0.00 | 74 | 1006.0 |
| 20260906142526 | 67 | 127 | 0.0 | 2.0 | 0.00 | 0.00 | 0.00 | 74 | 1020.7 |
| 20260906142120 | 66 | 121 | 0.0 | 2.0 | 0.00 | 0.00 | 0.00 | 75 | 1006.2 |
| 20260906142029 | 67 | 117 | 0.0 | 2.0 | 0.00 | 0.00 | 0.00 | 76 | 1020.8 |
| 20260906141633 | 66 | 124 | 0.0 | 2.0 | 0.00 | 0.00 | 0.00 | 77 | 1006.1 |
| 20260906141553 | 66 | 136 | 1.0 | 2.0 | 0.00 | 0.00 | 0.00 | 77 | 1020.8 |
| 20260906141108 | 65 | 139 | 0.0 | 2.0 | 0.00 | 0.00 | 0.00 | 78 | 1006.1 |
| 20260906141051 | 66 | 136 | 1.0 | 2.0 | 0.00 | 0.00 | 0.00 | 78 | 1020.8 |
| 20260906140634 | 65 | 360 | 0.0 | 2.0 | 0.00 | 0.00 | 0.00 | 79 | 1006.0 |
| 20260906140550 | 65 | 360 | 0.0 | 1.0 | 0.00 | 0.00 | 0.00 | 80 | 1020.8 |
| 20260906140118 | 64 | 360 | 0.0 | 1.0 | 0.00 | 0.00 | 0.00 | 81 | 1006.0 |
| 20260906140046 | 65 | 360 | 0.0 | 1.0 | 0.00 | 0.00 | 0.00 | 81 | 1020.7 |
| 20260906135631 | 64 | 360 | 0.0 | 1.0 | 0.00 | 0.00 | 0.00 | 82 | 1006.1 |
| 20260906135542 | 64 | 360 | 0.0 | 1.0 | 0.00 | 0.00 | 0.00 | 82 | 1020.7 |
| 20260906135109 | 64 | 17 | 0.0 | 1.0 | 0.00 | 0.00 | 0.00 | 83 | 1020.8 |
| 20260906135012 | 63 | 17 | 0.0 | 1.0 | 0.00 | 0.00 | 0.00 | 83 | 1006.1 |
| 20260906134635 | 63 | 13 | 0.0 | 1.0 | 0.00 | 0.00 | 0.00 | 83 | 1006.0 |
| 20260906134543 | 64 | 14 | 0.0 | 1.0 | 0.00 | 0.00 | 0.00 | 83 | 1020.7 |
| 20260906134152 | 63 | 13 | 0.0 | 1.0 | 0.00 | 0.00 | 0.00 | 83 | 1006.0 |
| 20260906134109 | 63 | 13 | 0.0 | 1.0 | 0.00 | 0.00 | 0.00 | 84 | 1020.7 |
| 20260906133609 | 63 | 13 | 0.0 | 1.0 | 0.00 | 0.00 | 0.00 | 84 | 1006.0 |
| 20260906133544 | 63 | 13 | 0.0 | 1.0 | 0.00 | 0.00 | 0.00 | 84 | 1020.7 |
| 20260906133135 | 62 | 13 | 0.0 | 1.0 | 0.00 | 0.00 | 0.00 | 84 | 1006.0 |
| 20260906133040 | 63 | 13 | 0.0 | 1.0 | 0.00 | 0.00 | 0.00 | 84 | 1020.7 |
| 20260906132604 | 62 | 13 | 0.0 | 0.0 | 0.00 | 0.00 | 0.00 | 84 | 1005.9 |
| 20260906132534 | 63 | 13 | 0.0 | 0.0 | 0.00 | 0.00 | 0.00 | 84 | 1020.6 |
| 20260906132136 | 62 | 13 | 0.0 | 0.0 | 0.00 | 0.00 | 0.00 | 84 | 1005.8 |
| 20260906132037 | 62 | 13 | 0.0 | 0.0 | 0.00 | 0.00 | 0.00 | 84 | 1020.5 |
| 20260906131550 | 62 | 13 | 0.0 | 0.0 | 0.00 | 0.00 | 0.00 | 84 | 1005.8 |
| 20260906131533 | 62 | 13 | 0.0 | 0.0 | 0.00 | 0.00 | 0.00 | 84 | 1020.5 |
| 20260906131118 | 61 | 13 | 0.0 | 0.0 | 0.00 | 0.00 | 0.00 | 84 | 1005.7 |
| 20260906131059 | 62 | 13 | 0.0 | 0.0 | 0.00 | 0.00 | 0.00 | 84 | 1020.4 |
| 20260906130629 | 61 | 13 | 0.0 | 0.0 | 0.00 | 0.00 | 0.00 | 84 | 1005.7 |
| 20260906130533 | 62 | 13 | 0.0 | 0.0 | 0.00 | 0.00 | 0.00 | 84 | 1020.4 |
| 20260906130141 | 61 | 13 | 0.0 | 0.0 | 0.00 | 0.00 | 0.00 | 84 | 1005.7 |
| 20260906130028 | 62 | 13 | 0.0 | 0.0 | 0.00 | 0.00 | 0.00 | 84 | 1020.3 |
| 20260906125630 | 61 | 13 | 0.0 | 0.0 | 0.00 | 0.00 | 0.00 | 84 | 1005.6 |
| 20260906125538 | 62 | 13 | 0.0 | 0.0 | 0.00 | 0.00 | 0.00 | 84 | 1020.2 |
| 20260906125046 | 61 | 13 | 0.0 | 0.0 | 0.00 | 0.00 | 0.00 | 83 | 1005.4 |
| 20260906125030 | 62 | 13 | 0.0 | 0.0 | 0.00 | 0.00 | 0.00 | 83 | 1020.0 |
| 20260906124618 | 61 | 13 | 0.0 | 0.0 | 0.00 | 0.00 | 0.00 | 82 | 1005.4 |
| 20260906124554 | 62 | 13 | 0.0 | 0.0 | 0.00 | 0.00 | 0.00 | 82 | 1020.1 |
| 20260906124120 | 61 | 13 | 0.0 | 0.0 | 0.00 | 0.00 | 0.00 | 82 | 1005.5 |
| 20260906124026 | 62 | 13 | 0.0 | 0.0 | 0.00 | 0.00 | 0.00 | 82 | 1020.2 |
| 20260906123552 | 62 | 13 | 0.0 | 0.0 | 0.00 | 0.00 | 0.00 | 81 | 1020.2 |
| 20260906123502 | 61 | 13 | 0.0 | 0.0 | 0.00 | 0.00 | 0.00 | 81 | 1005.6 |
| 20260906123111 | 61 | 13 | 0.0 | 0.0 | 0.00 | 0.00 | 0.00 | 81 | 1005.6 |
| 20260906123034 | 62 | 13 | 0.0 | 0.0 | 0.00 | 0.00 | 0.00 | 81 | 1020.1 |
| 20260906122621 | 61 | 13 | 0.0 | 0.0 | 0.00 | 0.00 | 0.00 | 81 | 1005.6 |
| 20260906122556 | 62 | 13 | 0.0 | 0.0 | 0.00 | 0.00 | 0.00 | 81 | 1020.2 |
| 20260906122136 | 61 | 13 | 0.0 | 0.0 | 0.00 | 0.00 | 0.00 | 80 | 1005.6 |
| 20260906122105 | 62 | 13 | 0.0 | 0.0 | 0.00 | 0.00 | 0.00 | 80 | 1020.2 |
| 20260906121540 | 62 | 13 | 0.0 | 0.0 | 0.00 | 0.00 | 0.00 | 80 | 1020.1 |
| 20260906121512 | 61 | 13 | 0.0 | 0.0 | 0.00 | 0.00 | 0.00 | 79 | 1005.6 |
| 20260906121120 | 62 | 13 | 0.0 | 0.0 | 0.00 | 0.00 | 0.00 | 79 | 1005.6 |
| 20260906121057 | 62 | 13 | 0.0 | 0.0 | 0.00 | 0.00 | 0.00 | 79 | 1020.2 |
| 20260906120630 | 62 | 13 | 0.0 | 0.0 | 0.00 | 0.00 | 0.00 | 77 | 1005.6 |
| 20260906120538 | 62 | 13 | 0.0 | 0.0 | 0.00 | 0.00 | 0.00 | 77 | 1020.2 |
| 20260906120033 | 62 | 13 | 0.0 | 0.0 | 0.00 | 0.00 | 0.00 | 77 | 1020.2 |
| 20260906120009 | 62 | 13 | 0.0 | 0.0 | 0.00 | 0.00 | 0.00 | 77 | 1005.7 |
| 20260906115615 | 62 | 13 | 0.0 | 0.0 | 0.00 | 0.00 | 0.00 | 76 | 1005.6 |
| 20260906115557 | 62 | 13 | 0.0 | 0.0 | 0.00 | 0.00 | 0.00 | 76 | 1020.1 |
| 20260906115119 | 62 | 13 | 0.0 | 0.0 | 0.00 | 0.00 | 0.00 | 76 | 1005.6 |
| 20260906115031 | 63 | 13 | 0.0 | 0.0 | 0.00 | 0.00 | 0.00 | 76 | 1020.2 |
| 20260906114649 | 62 | 13 | 0.0 | 0.0 | 0.00 | 0.00 | 0.00 | 76 | 1005.7 |
| 20260906114536 | 63 | 13 | 0.0 | 0.0 | 0.00 | 0.00 | 0.00 | 75 | 1020.2 |
| 20260906114101 | 62 | 13 | 0.0 | 0.0 | 0.00 | 0.00 | 0.00 | 75 | 1005.6 |
| 20260906114030 | 63 | 13 | 0.0 | 0.0 | 0.00 | 0.00 | 0.00 | 74 | 1020.1 |
| 20260906113629 | 62 | 13 | 0.0 | 0.0 | 0.00 | 0.00 | 0.00 | 74 | 1005.7 |
| 20260906113553 | 63 | 13 | 0.0 | 0.0 | 0.00 | 0.00 | 0.00 | 74 | 1020.3 |
| 20260906113108 | 63 | 13 | 0.0 | 0.0 | 0.00 | 0.00 | 0.00 | 73 | 1005.6 |
| 20260906113044 | 63 | 13 | 0.0 | 0.0 | 0.00 | 0.00 | 0.00 | 73 | 1020.1 |
| 20260906112626 | 63 | 13 | 0.0 | 0.0 | 0.00 | 0.00 | 0.00 | 73 | 1005.5 |
| 20260906112540 | 63 | 13 | 0.0 | 0.0 | 0.00 | 0.00 | 0.00 | 73 | 1020.1 |
| 20260906112055 | 63 | 13 | 0.0 | 0.0 | 0.00 | 0.00 | 0.00 | 72 | 1005.5 |
| 20260906112034 | 64 | 13 | 0.0 | 0.0 | 0.00 | 0.00 | 0.00 | 72 | 1020.1 |
| 20260906111628 | 63 | 13 | 0.0 | 0.0 | 0.00 | 0.00 | 0.00 | 72 | 1005.5 |
| 20260906111527 | 64 | 13 | 0.0 | 0.0 | 0.00 | 0.00 | 0.00 | 72 | 1020.1 |
| 20260906111031 | 64 | 13 | 0.0 | 0.0 | 0.00 | 0.00 | 0.00 | 71 | 1020.0 |
| 20260906111007 | 64 | 13 | 0.0 | 0.0 | 0.00 | 0.00 | 0.00 | 71 | 1005.5 |
| 20260906110608 | 64 | 13 | 0.0 | 0.0 | 0.00 | 0.00 | 0.00 | 70 | 1005.5 |
| 20260906110527 | 64 | 13 | 0.0 | 0.0 | 0.00 | 0.00 | 0.00 | 70 | 1020.1 |
| 20260906110033 | 64 | 13 | 0.0 | 0.0 | 0.00 | 0.00 | 0.00 | 70 | 1019.9 |
| 20260906110001 | 64 | 13 | 0.0 | 0.0 | 0.00 | 0.00 | 0.00 | 69 | 1005.3 |
| 20260906105614 | 64 | 13 | 0.0 | 0.0 | 0.00 | 0.00 | 0.00 | 69 | 1005.2 |
| 20260906105602 | 65 | 13 | 0.0 | 0.0 | 0.00 | 0.00 | 0.00 | 69 | 1019.7 |
| 20260906105126 | 64 | 13 | 0.0 | 0.0 | 0.00 | 0.00 | 0.00 | 68 | 1005.1 |
| 20260906105048 | 65 | 13 | 0.0 | 0.0 | 0.00 | 0.00 | 0.00 | 68 | 1019.7 |
| 20260906104636 | 65 | 13 | 0.0 | 0.0 | 0.00 | 0.00 | 0.00 | 67 | 1005.1 |
| 20260906104543 | 65 | 13 | 0.0 | 0.0 | 0.00 | 0.00 | 0.00 | 67 | 1019.6 |
| 20260906104105 | 65 | 13 | 0.0 | 0.0 | 0.00 | 0.00 | 0.00 | 66 | 1005.0 |
| 20260906104035 | 65 | 13 | 0.0 | 0.0 | 0.00 | 0.00 | 0.00 | 65 | 1019.6 |
| 20260906103529 | 66 | 13 | 0.0 | 0.0 | 0.00 | 0.00 | 0.00 | 65 | 1019.5 |
| 20260906103502 | 65 | 13 | 0.0 | 1.0 | 0.00 | 0.00 | 0.00 | 65 | 1004.9 |
| 20260906103114 | 65 | 13 | 0.0 | 1.0 | 0.00 | 0.00 | 0.00 | 64 | 1004.9 |
| 20260906103052 | 66 | 13 | 0.0 | 1.0 | 0.00 | 0.00 | 0.00 | 64 | 1019.6 |
| 20260906102639 | 65 | 13 | 0.0 | 2.0 | 0.00 | 0.00 | 0.00 | 63 | 1004.9 |
| 20260906102547 | 66 | 13 | 0.0 | 2.0 | 0.00 | 0.00 | 0.00 | 63 | 1019.5 |
| 20260906102152 | 65 | 24 | 0.0 | 3.0 | 0.00 | 0.00 | 0.00 | 63 | 1004.8 |
| 20260906102031 | 66 | 24 | 1.0 | 3.0 | 0.00 | 0.00 | 0.00 | 63 | 1019.4 |
| 20260906101611 | 65 | 24 | 0.0 | 3.0 | 0.00 | 0.00 | 0.00 | 63 | 1004.7 |
| 20260906101559 | 66 | 24 | 1.0 | 3.0 | 0.00 | 0.00 | 0.00 | 63 | 1019.3 |
| 20260906101123 | 65 | 355 | 1.0 | 3.0 | 0.00 | 0.00 | 0.00 | 63 | 1004.8 |
| 20260906101044 | 65 | 241 | 1.0 | 3.0 | 0.00 | 0.00 | 0.00 | 63 | 1019.3 |
| 20260906100601 | 65 | 211 | 0.0 | 2.0 | 0.00 | 0.00 | 0.00 | 64 | 1004.9 |
| 20260906100542 | 65 | 211 | 0.0 | 1.0 | 0.00 | 0.00 | 0.00 | 64 | 1019.5 |
| 20260906100123 | 65 | 211 | 0.0 | 0.0 | 0.00 | 0.00 | 0.00 | 64 | 1004.9 |
| 20260906100037 | 65 | 211 | 0.0 | 0.0 | 0.00 | 0.00 | 0.00 | 64 | 1019.5 |
| 20260906095555 | 65 | 211 | 0.0 | 0.0 | 0.00 | 0.00 | 0.00 | 64 | 1004.9 |
| 20260906095531 | 66 | 211 | 0.0 | 0.0 | 0.00 | 0.00 | 0.00 | 64 | 1019.5 |
| 20260906095127 | 65 | 211 | 0.0 | 1.0 | 0.00 | 0.00 | 0.00 | 64 | 1004.9 |
| 20260906095029 | 66 | 211 | 0.0 | 1.0 | 0.00 | 0.00 | 0.00 | 64 | 1019.5 |
| 20260906094553 | 66 | 211 | 0.0 | 1.0 | 0.00 | 0.00 | 0.00 | 64 | 1019.5 |
| 20260906094504 | 65 | 211 | 0.0 | 1.0 | 0.00 | 0.00 | 0.00 | 64 | 1004.9 |
| 20260906094111 | 66 | 211 | 0.0 | 0.0 | 0.00 | 0.00 | 0.00 | 63 | 1004.9 |
| 20260906094039 | 66 | 211 | 0.0 | 0.0 | 0.00 | 0.00 | 0.00 | 63 | 1019.5 |
| 20260906093536 | 66 | 211 | 0.0 | 2.0 | 0.00 | 0.00 | 0.00 | 63 | 1019.5 |
| 20260906093508 | 66 | 211 | 0.0 | 2.0 | 0.00 | 0.00 | 0.00 | 63 | 1004.9 |
| 20260906093114 | 66 | 211 | 0.0 | 2.0 | 0.00 | 0.00 | 0.00 | 63 | 1004.9 |
| 20260906093042 | 66 | 211 | 0.0 | 2.0 | 0.00 | 0.00 | 0.00 | 63 | 1019.5 |
| 20260906092651 | 66 | 211 | 0.0 | 2.0 | 0.00 | 0.00 | 0.00 | 63 | 1004.9 |
| 20260906092613 | 66 | 211 | 0.0 | 1.0 | 0.00 | 0.00 | 0.00 | 63 | 1019.5 |
| 20260906092105 | 66 | 211 | 0.0 | 0.0 | 0.00 | 0.00 | 0.00 | 63 | 1004.8 |
| 20260906092048 | 66 | 211 | 0.0 | 0.0 | 0.00 | 0.00 | 0.00 | 63 | 1019.4 |
| 20260906091635 | 66 | 211 | 0.0 | 0.0 | 0.00 | 0.00 | 0.00 | 63 | 1004.9 |
| 20260906091543 | 67 | 211 | 0.0 | 0.0 | 0.00 | 0.00 | 0.00 | 63 | 1019.5 |
| 20260906091107 | 66 | 211 | 0.0 | 0.0 | 0.00 | 0.00 | 0.00 | 62 | 1004.9 |
| 20260906091039 | 67 | 211 | 0.0 | 0.0 | 0.00 | 0.00 | 0.00 | 62 | 1019.4 |
| 20260906090535 | 67 | 211 | 0.0 | 0.0 | 0.00 | 0.00 | 0.00 | 62 | 1019.4 |
| 20260906090504 | 66 | 211 | 0.0 | 0.0 | 0.00 | 0.00 | 0.00 | 62 | 1004.8 |
| 20260906090103 | 66 | 211 | 0.0 | 0.0 | 0.00 | 0.00 | 0.00 | 62 | 1004.8 |
| 20260906090026 | 67 | 211 | 0.0 | 0.0 | 0.00 | 0.00 | 0.00 | 62 | 1019.3 |
| 20260906085635 | 67 | 211 | 0.0 | 0.0 | 0.00 | 0.00 | 0.00 | 62 | 1004.8 |
| 20260906085550 | 67 | 211 | 0.0 | 0.0 | 0.00 | 0.00 | 0.00 | 62 | 1019.3 |
| 20260906085104 | 67 | 211 | 0.0 | 0.0 | 0.00 | 0.00 | 0.00 | 61 | 1004.7 |
| 20260906085046 | 67 | 211 | 0.0 | 0.0 | 0.00 | 0.00 | 0.00 | 61 | 1019.3 |
| 20260906084632 | 67 | 211 | 0.0 | 2.0 | 0.00 | 0.00 | 0.00 | 61 | 1004.6 |
| 20260906084541 | 68 | 211 | 0.0 | 2.0 | 0.00 | 0.00 | 0.00 | 61 | 1019.2 |
| 20260906084105 | 67 | 211 | 1.0 | 2.0 | 0.00 | 0.00 | 0.00 | 61 | 1004.5 |
| 20260906084037 | 68 | 211 | 1.0 | 2.0 | 0.00 | 0.00 | 0.00 | 61 | 1019.1 |
| 20260906083631 | 67 | 211 | 0.0 | 2.0 | 0.00 | 0.00 | 0.00 | 60 | 1004.5 |
| 20260906083533 | 68 | 211 | 0.0 | 2.0 | 0.00 | 0.00 | 0.00 | 61 | 1019.1 |
| 20260906083104 | 68 | 211 | 1.0 | 2.0 | 0.00 | 0.00 | 0.00 | 60 | 1004.5 |
| 20260906083027 | 68 | 211 | 1.0 | 2.0 | 0.00 | 0.00 | 0.00 | 60 | 1019.1 |
| 20260906082552 | 68 | 211 | 0.0 | 0.0 | 0.00 | 0.00 | 0.00 | 59 | 1019.2 |
| 20260906082501 | 68 | 211 | 0.0 | 0.0 | 0.00 | 0.00 | 0.00 | 59 | 1004.6 |
| 20260906082111 | 68 | 211 | 0.0 | 0.0 | 0.00 | 0.00 | 0.00 | 59 | 1004.7 |
| 20260906082049 | 68 | 211 | 0.0 | 0.0 | 0.00 | 0.00 | 0.00 | 59 | 1019.3 |
| 20260906081620 | 68 | 211 | 0.0 | 0.0 | 0.00 | 0.00 | 0.00 | 58 | 1004.7 |
| 20260906081552 | 69 | 211 | 0.0 | 0.0 | 0.00 | 0.00 | 0.00 | 59 | 1019.2 |
| 20260906081044 | 69 | 211 | 0.0 | 0.0 | 0.00 | 0.00 | 0.00 | 58 | 1019.3 |
| 20260906081020 | 68 | 211 | 0.0 | 0.0 | 0.00 | 0.00 | 0.00 | 58 | 1004.8 |
| 20260906080618 | 68 | 211 | 0.0 | 1.0 | 0.00 | 0.00 | 0.00 | 58 | 1004.8 |
| 20260906080540 | 69 | 211 | 0.0 | 1.0 | 0.00 | 0.00 | 0.00 | 58 | 1019.4 |
| 20260906080056 | 69 | 211 | 0.0 | 1.0 | 0.00 | 0.00 | 0.00 | 57 | 1004.8 |
| 20260906080036 | 69 | 211 | 0.0 | 1.0 | 0.00 | 0.00 | 0.00 | 57 | 1019.4 |
| 20260906075624 | 69 | 211 | 0.0 | 1.0 | 0.00 | 0.00 | 0.00 | 57 | 1004.8 |
| 20260906075541 | 69 | 211 | 0.0 | 1.0 | 0.00 | 0.00 | 0.00 | 57 | 1019.3 |
| 20260906075059 | 69 | 211 | 0.0 | 0.0 | 0.00 | 0.00 | 0.00 | 56 | 1004.7 |
| 20260906075038 | 69 | 211 | 0.0 | 0.0 | 0.00 | 0.00 | 0.00 | 56 | 1019.2 |
| 20260906074621 | 69 | 211 | 0.0 | 1.0 | 0.00 | 0.00 | 0.00 | 56 | 1004.5 |
| 20260906074533 | 69 | 211 | 0.0 | 1.0 | 0.00 | 0.00 | 0.00 | 56 | 1019.0 |
| 20260906074038 | 70 | 211 | 0.0 | 1.0 | 0.00 | 0.00 | 0.00 | 56 | 1019.1 |
| 20260906074007 | 69 | 211 | 0.0 | 1.0 | 0.00 | 0.00 | 0.00 | 56 | 1004.6 |
| 20260906073608 | 70 | 211 | 0.0 | 0.0 | 0.00 | 0.00 | 0.00 | 55 | 1019.0 |
| 20260906073523 | 69 | 211 | 0.0 | 0.0 | 0.00 | 0.00 | 0.00 | 55 | 1004.5 |
| 20260906073124 | 69 | 211 | 0.0 | 1.0 | 0.00 | 0.00 | 0.00 | 55 | 1004.4 |
| 20260906073043 | 70 | 211 | 0.0 | 1.0 | 0.00 | 0.00 | 0.00 | 55 | 1018.9 |
| 20260906072559 | 69 | 211 | 0.0 | 2.0 | 0.00 | 0.00 | 0.00 | 54 | 1004.5 |
| 20260906072538 | 70 | 211 | 0.0 | 2.0 | 0.00 | 0.00 | 0.00 | 54 | 1018.9 |
| 20260906072124 | 70 | 236 | 0.0 | 2.0 | 0.00 | 0.00 | 0.00 | 54 | 1004.5 |
| 20260906072033 | 70 | 250 | 0.0 | 2.0 | 0.00 | 0.00 | 0.00 | 54 | 1019.0 |
| 20260906071553 | 70 | 192 | 1.0 | 2.0 | 0.00 | 0.00 | 0.00 | 53 | 1018.9 |
| 20260906071524 | 70 | 192 | 0.0 | 2.0 | 0.00 | 0.00 | 0.00 | 53 | 1004.4 |
| 20260906071131 | 70 | 188 | 0.0 | 1.0 | 0.00 | 0.00 | 0.00 | 53 | 1004.4 |
| 20260906071050 | 70 | 188 | 0.0 | 1.0 | 0.00 | 0.00 | 0.00 | 53 | 1018.9 |
| 20260906070546 | 71 | 190 | 0.0 | 2.0 | 0.00 | 0.00 | 0.00 | 52 | 1018.8 |
| 20260906070522 | 70 | 190 | 0.0 | 2.0 | 0.00 | 0.00 | 0.00 | 52 | 1004.3 |
| 20260906070124 | 71 | 190 | 0.0 | 2.0 | 0.00 | 0.00 | 0.00 | 52 | 1004.3 |
| 20260906070042 | 71 | 190 | 0.0 | 2.0 | 0.00 | 0.00 | 0.00 | 51 | 1018.8 |
| 20260906065559 | 71 | 190 | 0.0 | 1.0 | 0.00 | 0.00 | 0.00 | 51 | 1004.3 |
| 20260906065536 | 71 | 190 | 0.0 | 1.0 | 0.00 | 0.00 | 0.00 | 51 | 1018.7 |
| 20260906065119 | 71 | 190 | 0.0 | 0.0 | 0.00 | 0.00 | 0.00 | 50 | 1004.2 |
| 20260906065030 | 72 | 190 | 0.0 | 0.0 | 0.00 | 0.00 | 0.00 | 50 | 1018.6 |
| 20260906064554 | 72 | 190 | 0.0 | 0.0 | 0.00 | 0.00 | 0.00 | 49 | 1018.7 |
| 20260906064511 | 72 | 190 | 0.0 | 0.0 | 0.00 | 0.00 | 0.00 | 49 | 1004.3 |
| 20260906064116 | 72 | 190 | 0.0 | 0.0 | 0.00 | 0.00 | 0.00 | 48 | 1004.3 |
| 20260906064050 | 72 | 190 | 0.0 | 0.0 | 0.00 | 0.00 | 0.00 | 48 | 1018.7 |
| 20260906063639 | 72 | 190 | 0.0 | 0.0 | 0.00 | 0.00 | 0.00 | 48 | 1004.5 |
| 20260906063545 | 73 | 190 | 0.0 | 0.0 | 0.00 | 0.00 | 0.00 | 48 | 1018.9 |
| 20260906063107 | 72 | 190 | 0.0 | 3.0 | 0.00 | 0.00 | 0.00 | 47 | 1004.5 |
| 20260906063037 | 73 | 190 | 0.0 | 3.0 | 0.00 | 0.00 | 0.00 | 47 | 1019.0 |
| 20260906062629 | 73 | 190 | 1.0 | 2.0 | 0.00 | 0.00 | 0.00 | 47 | 1004.6 |
| 20260906062530 | 73 | 175 | 1.0 | 2.0 | 0.00 | 0.00 | 0.00 | 46 | 1019.0 |
| 20260906062110 | 73 | 120 | 0.0 | 1.0 | 0.00 | 0.00 | 0.00 | 46 | 1004.8 |
| 20260906062027 | 74 | 120 | 0.0 | 1.0 | 0.00 | 0.00 | 0.00 | 46 | 1019.1 |
| 20260906061629 | 73 | 120 | 0.0 | 1.0 | 0.00 | 0.00 | 0.00 | 45 | 1004.7 |
| 20260906061551 | 74 | 120 | 0.0 | 1.0 | 0.00 | 0.00 | 0.00 | 45 | 1019.1 |
| 20260906061044 | 74 | 120 | 0.0 | 1.0 | 0.00 | 0.00 | 0.00 | 45 | 1019.3 |
| 20260906061011 | 74 | 120 | 0.0 | 1.0 | 0.00 | 0.00 | 0.00 | 45 | 1004.9 |
| 20260906060613 | 74 | 120 | 0.0 | 1.0 | 0.00 | 0.00 | 0.00 | 45 | 1019.5 |
| 20260906060526 | 74 | 120 | 0.0 | 2.0 | 0.00 | 0.00 | 0.00 | 45 | 1005.1 |
| 20260906060131 | 74 | 120 | 0.0 | 2.0 | 0.00 | 0.00 | 0.00 | 44 | 1005.1 |
| 20260906060047 | 75 | 120 | 0.0 | 2.0 | 0.00 | 0.00 | 0.00 | 44 | 1019.5 |
| 20260906055543 | 75 | 120 | 0.0 | 2.0 | 0.00 | 0.00 | 0.00 | 43 | 1019.5 |
| 20260906055520 | 74 | 120 | 0.0 | 2.0 | 0.00 | 0.00 | 0.00 | 44 | 1005.1 |
| 20260906055126 | 74 | 120 | 1.0 | 2.0 | 0.00 | 0.00 | 0.00 | 43 | 1005.1 |
| 20260906055037 | 75 | 120 | 1.0 | 2.0 | 0.00 | 0.00 | 0.00 | 43 | 1019.6 |
| 20260906054657 | 74 | 351 | 0.0 | 1.0 | 0.00 | 0.00 | 0.00 | 43 | 1005.1 |
| 20260906054559 | 75 | 351 | 0.0 | 1.0 | 0.00 | 0.00 | 0.00 | 43 | 1019.4 |
| 20260906054105 | 75 | 351 | 0.0 | 1.0 | 0.00 | 0.00 | 0.00 | 43 | 1005.1 |
| 20260906054035 | 75 | 351 | 0.0 | 1.0 | 0.00 | 0.00 | 0.00 | 43 | 1019.4 |
| 20260906053639 | 75 | 351 | 0.0 | 1.0 | 0.00 | 0.00 | 0.00 | 42 | 1005.1 |
| 20260906053555 | 75 | 351 | 0.0 | 1.0 | 0.00 | 0.00 | 0.00 | 42 | 1019.6 |
| 20260906053103 | 76 | 351 | 0.0 | 2.0 | 0.00 | 0.00 | 0.00 | 42 | 1019.5 |
| 20260906053001 | 75 | 351 | 0.0 | 2.0 | 0.00 | 0.00 | 0.00 | 42 | 1005.1 |
| 20260906052613 | 75 | 351 | 0.0 | 2.0 | 0.00 | 0.00 | 0.00 | 41 | 1005.1 |
| 20260906052536 | 76 | 351 | 1.0 | 2.0 | 0.00 | 0.00 | 0.00 | 41 | 1019.5 |
| 20260906052050 | 75 | 11 | 0.0 | 2.0 | 0.00 | 0.00 | 0.00 | 41 | 1005.1 |
| 20260906052032 | 76 | 11 | 0.0 | 2.0 | 0.00 | 0.00 | 0.00 | 41 | 1019.5 |
| 20260906051617 | 75 | 11 | 0.0 | 2.0 | 0.00 | 0.00 | 0.00 | 40 | 1005.0 |
| 20260906051528 | 76 | 11 | 1.0 | 2.0 | 0.00 | 0.00 | 0.00 | 40 | 1019.4 |
| 20260906051053 | 76 | 274 | 0.0 | 2.0 | 0.00 | 0.00 | 0.00 | 41 | 1019.5 |
| 20260906051018 | 75 | 261 | 0.0 | 2.0 | 0.00 | 0.00 | 0.00 | 41 | 1005.1 |
| 20260906050621 | 75 | 261 | 0.0 | 2.0 | 0.00 | 0.00 | 0.00 | 41 | 1005.1 |
| 20260906050547 | 76 | 261 | 1.0 | 2.0 | 0.00 | 0.00 | 0.00 | 41 | 1019.6 |
| 20260906050043 | 76 | 217 | 0.0 | 1.0 | 0.00 | 0.00 | 0.00 | 40 | 1019.6 |
| 20260906050018 | 76 | 217 | 0.0 | 1.0 | 0.00 | 0.00 | 0.00 | 40 | 1005.1 |
| 20260906045622 | 76 | 136 | 0.0 | 0.0 | 0.00 | 0.00 | 0.00 | 40 | 1005.2 |
| 20260906045537 | 77 | 136 | 0.0 | 1.0 | 0.00 | 0.00 | 0.00 | 40 | 1019.7 |
| 20260906045153 | 77 | 136 | 0.0 | 2.0 | 0.00 | 0.00 | 0.00 | 39 | 1005.2 |
| 20260906045055 | 77 | 136 | 0.0 | 2.0 | 0.00 | 0.00 | 0.00 | 38 | 1019.7 |
| 20260906044605 | 77 | 136 | 0.0 | 2.0 | 0.00 | 0.00 | 0.00 | 38 | 1005.2 |
| 20260906044531 | 78 | 136 | 1.0 | 2.0 | 0.00 | 0.00 | 0.00 | 38 | 1019.7 |
| 20260906044028 | 78 | 163 | 0.0 | 0.0 | 0.00 | 0.00 | 0.00 | 37 | 1019.6 |
| 20260906044003 | 78 | 163 | 0.0 | 0.0 | 0.00 | 0.00 | 0.00 | 37 | 1005.1 |
| 20260906043610 | 78 | 163 | 0.0 | 0.0 | 0.00 | 0.00 | 0.00 | 36 | 1005.2 |
| 20260906043554 | 78 | 163 | 0.0 | 0.0 | 0.00 | 0.00 | 0.00 | 36 | 1019.7 |
| 20260906043118 | 78 | 163 | 0.0 | 2.0 | 0.00 | 0.00 | 0.00 | 36 | 1005.2 |
| 20260906043029 | 78 | 163 | 0.0 | 2.0 | 0.00 | 0.00 | 0.00 | 36 | 1019.7 |
| 20260906042554 | 78 | 163 | 0.0 | 3.0 | 0.00 | 0.00 | 0.00 | 35 | 1019.6 |
| 20260906042509 | 78 | 163 | 0.0 | 5.0 | 0.00 | 0.00 | 0.00 | 35 | 1005.2 |
| 20260906042123 | 77 | 169 | 1.0 | 5.0 | 0.00 | 0.00 | 0.00 | 35 | 1005.0 |
| 20260906042029 | 78 | 169 | 1.0 | 5.0 | 0.00 | 0.00 | 0.00 | 36 | 1019.5 |
| 20260906041635 | 77 | 154 | 2.0 | 5.0 | 0.00 | 0.00 | 0.00 | 36 | 1005.1 |
| 20260906041552 | 77 | 139 | 2.0 | 5.0 | 0.00 | 0.00 | 0.00 | 36 | 1019.5 |
| 20260906041105 | 76 | 184 | 3.0 | 5.0 | 0.00 | 0.00 | 0.00 | 38 | 1005.0 |
| 20260906041042 | 77 | 187 | 3.0 | 5.0 | 0.00 | 0.00 | 0.00 | 38 | 1019.4 |
| 20260906040630 | 76 | 172 | 2.0 | 6.0 | 0.00 | 0.00 | 0.00 | 38 | 1004.8 |
| 20260906040539 | 76 | 148 | 2.0 | 4.0 | 0.00 | 0.00 | 0.00 | 38 | 1019.3 |
| 20260906040044 | 76 | 34 | 1.0 | 4.0 | 0.00 | 0.00 | 0.00 | 38 | 1018.8 |
| 20260906040016 | 76 | 34 | 0.0 | 5.0 | 0.00 | 0.00 | 0.00 | 38 | 1004.2 |
| 20260906035627 | 75 | 34 | 1.0 | 5.0 | 0.00 | 0.00 | 0.00 | 39 | 1004.0 |
| 20260906035552 | 76 | 34 | 2.0 | 5.0 | 0.00 | 0.00 | 0.00 | 39 | 1018.5 |
| 20260906035139 | 75 | 30 | 2.0 | 5.0 | 0.00 | 0.00 | 0.00 | 39 | 1003.9 |
| 20260906035047 | 75 | 21 | 2.0 | 5.0 | 0.00 | 0.00 | 0.00 | 39 | 1018.4 |
| 20260906034607 | 75 | 29 | 0.0 | 2.0 | 0.00 | 0.00 | 0.00 | 40 | 1003.7 |
| 20260906034542 | 75 | 29 | 1.0 | 2.0 | 0.00 | 0.00 | 0.00 | 40 | 1018.3 |
| 20260906034040 | 75 | 29 | 0.0 | 2.0 | 0.00 | 0.00 | 0.00 | 41 | 1018.4 |
| 20260906034002 | 75 | 29 | 0.0 | 2.0 | 0.00 | 0.00 | 0.00 | 41 | 1003.8 |
| 20260906033609 | 75 | 29 | 0.0 | 1.0 | 0.00 | 0.00 | 0.00 | 41 | 1003.7 |
| 20260906033536 | 76 | 29 | 1.0 | 1.0 | 0.00 | 0.00 | 0.00 | 41 | 1018.4 |
| 20260906033048 | 75 | 29 | 0.0 | 0.0 | 0.00 | 0.00 | 0.00 | 40 | 1003.8 |
| 20260906033029 | 76 | 29 | 0.0 | 0.0 | 0.00 | 0.00 | 0.00 | 40 | 1018.4 |
| 20260906032615 | 76 | 29 | 0.0 | 0.0 | 0.00 | 0.00 | 0.00 | 39 | 1003.8 |
| 20260906032553 | 76 | 29 | 0.0 | 0.0 | 0.00 | 0.00 | 0.00 | 38 | 1018.4 |
| 20260906032143 | 76 | 29 | 0.0 | 0.0 | 0.00 | 0.00 | 0.00 | 39 | 1003.7 |
| 20260906032049 | 76 | 29 | 0.0 | 0.0 | 0.00 | 0.00 | 0.00 | 39 | 1018.4 |
| 20260906031615 | 77 | 29 | 0.0 | 0.0 | 0.00 | 0.00 | 0.00 | 38 | 1018.4 |
| 20260906031503 | 76 | 29 | 0.0 | 0.0 | 0.00 | 0.00 | 0.00 | 38 | 1003.7 |
| 20260906031114 | 76 | 29 | 0.0 | 1.0 | 0.00 | 0.00 | 0.00 | 38 | 1003.6 |
| 20260906031050 | 77 | 29 | 0.0 | 1.0 | 0.00 | 0.00 | 0.00 | 38 | 1018.3 |
| 20260906030546 | 77 | 29 | 0.0 | 1.0 | 0.00 | 0.00 | 0.00 | 37 | 1018.1 |
| 20260906030514 | 77 | 29 | 0.0 | 1.0 | 0.00 | 0.00 | 0.00 | 37 | 1003.4 |
| 20260906030114 | 77 | 29 | 0.0 | 1.0 | 0.00 | 0.00 | 0.00 | 38 | 1018.0 |
| 20260906030025 | 77 | 29 | 0.0 | 1.0 | 0.00 | 0.00 | 0.00 | 38 | 1003.2 |
| 20260906025631 | 77 | 29 | 0.0 | 0.0 | 0.00 | 0.00 | 0.00 | 37 | 1003.1 |
| 20260906025550 | 78 | 29 | 0.0 | 0.0 | 0.00 | 0.00 | 0.00 | 37 | 1017.9 |
| 20260906025053 | 78 | 29 | 0.0 | 1.0 | 0.00 | 0.00 | 0.00 | 37 | 1017.9 |
| 20260906025005 | 78 | 29 | 0.0 | 1.0 | 0.00 | 0.00 | 0.00 | 37 | 1003.1 |
| 20260906024615 | 78 | 29 | 0.0 | 1.0 | 0.00 | 0.00 | 0.00 | 37 | 1002.9 |
| 20260906024547 | 78 | 29 | 0.0 | 1.0 | 0.00 | 0.00 | 0.00 | 37 | 1017.7 |
| 20260906024041 | 79 | 29 | 0.0 | 1.0 | 0.00 | 0.00 | 0.00 | 36 | 1017.7 |
| 20260906024005 | 78 | 29 | 0.0 | 0.0 | 0.00 | 0.00 | 0.00 | 36 | 1002.9 |
| 20260906023613 | 79 | 29 | 0.0 | 0.0 | 0.00 | 0.00 | 0.00 | 35 | 1002.9 |
| 20260906023537 | 79 | 29 | 0.0 | 0.0 | 0.00 | 0.00 | 0.00 | 35 | 1017.7 |
| 20260906023145 | 79 | 29 | 0.0 | 0.0 | 0.00 | 0.00 | 0.00 | 34 | 1002.9 |
| 20260906023058 | 80 | 29 | 0.0 | 0.0 | 0.00 | 0.00 | 0.00 | 34 | 1017.7 |
| 20260906022557 | 80 | 29 | 0.0 | 0.0 | 0.00 | 0.00 | 0.00 | 35 | 1002.9 |
| 20260906022533 | 80 | 29 | 0.0 | 0.0 | 0.00 | 0.00 | 0.00 | 35 | 1017.7 |
| 20260906022129 | 80 | 29 | 0.0 | 0.0 | 0.00 | 0.00 | 0.00 | 34 | 1003.0 |
| 20260906022102 | 81 | 29 | 0.0 | 0.0 | 0.00 | 0.00 | 0.00 | 33 | 1017.7 |
| 20260906021646 | 81 | 29 | 0.0 | 0.0 | 0.00 | 0.00 | 0.00 | 32 | 1002.9 |
| 20260906021609 | 81 | 29 | 0.0 | 1.0 | 0.00 | 0.00 | 0.00 | 32 | 1017.6 |
| 20260906021103 | 81 | 29 | 0.0 | 2.0 | 0.00 | 0.00 | 0.00 | 31 | 1002.8 |
| 20260906021046 | 82 | 29 | 0.0 | 2.0 | 0.00 | 0.00 | 0.00 | 31 | 1017.5 |
| 20260906020637 | 82 | 29 | 0.0 | 2.0 | 0.00 | 0.00 | 0.00 | 31 | 1002.7 |
| 20260906020616 | 82 | 29 | 0.0 | 2.0 | 0.00 | 0.00 | 0.00 | 31 | 1017.5 |
| 20260906020146 | 82 | 29 | 0.0 | 3.0 | 0.00 | 0.00 | 0.00 | 30 | 1002.5 |
| 20260906020049 | 83 | 29 | 0.0 | 5.0 | 0.00 | 0.00 | 0.00 | 31 | 1017.4 |
| 20260906015554 | 83 | 29 | 0.0 | 5.0 | 0.00 | 0.00 | 0.00 | 30 | 1017.3 |
| 20260906015527 | 82 | 29 | 0.0 | 5.0 | 0.00 | 0.00 | 0.00 | 30 | 1002.5 |
| 20260906015128 | 83 | 40 | 1.0 | 5.0 | 0.00 | 0.00 | 0.00 | 29 | 1002.4 |
| 20260906015031 | 83 | 40 | 2.0 | 5.0 | 0.00 | 0.00 | 0.00 | 29 | 1017.3 |
| 20260906014616 | 83 | 38 | 1.0 | 4.0 | 0.00 | 0.00 | 0.00 | 29 | 1017.2 |
| 20260906014514 | 83 | 38 | 2.0 | 4.0 | 0.00 | 0.00 | 0.00 | 29 | 1002.4 |
| 20260906014116 | 83 | 35 | 1.0 | 6.0 | 0.00 | 0.00 | 0.00 | 29 | 1002.3 |
| 20260906014050 | 83 | 35 | 2.0 | 6.0 | 0.00 | 0.00 | 0.00 | 29 | 1017.1 |
| 20260906013546 | 83 | 34 | 3.0 | 6.0 | 0.00 | 0.00 | 0.00 | 29 | 1016.9 |
| 20260906013517 | 83 | 40 | 2.0 | 5.0 | 0.00 | 0.00 | 0.00 | 29 | 1002.1 |
| 20260906013055 | 83 | 38 | 2.0 | 4.0 | 0.00 | 0.00 | 0.00 | 29 | 1016.9 |
| 20260906013039 | 83 | 37 | 2.0 | 4.0 | 0.00 | 0.00 | 0.00 | 29 | 1002.1 |
| 20260906012639 | 83 | 32 | 1.0 | 3.0 | 0.00 | 0.00 | 0.00 | 30 | 1002.1 |
| 20260906012551 | 83 | 32 | 1.0 | 3.0 | 0.00 | 0.00 | 0.00 | 30 | 1016.9 |
| 20260906012054 | 83 | 344 | 1.0 | 2.0 | 0.00 | 0.00 | 0.00 | 30 | 1016.8 |
| 20260906012011 | 83 | 35 | 0.0 | 3.0 | 0.00 | 0.00 | 0.00 | 30 | 1002.0 |
| 20260906011621 | 83 | 35 | 1.0 | 4.0 | 0.00 | 0.00 | 0.00 | 30 | 1002.0 |
| 20260906011552 | 83 | 35 | 1.0 | 4.0 | 0.00 | 0.00 | 0.00 | 31 | 1016.8 |
| 20260906011048 | 84 | 35 | 1.0 | 4.0 | 0.00 | 0.00 | 0.00 | 30 | 1016.7 |
| 20260906011018 | 83 | 35 | 1.0 | 4.0 | 0.00 | 0.00 | 0.00 | 30 | 1001.9 |
| 20260906010624 | 83 | 30 | 0.0 | 0.0 | 0.00 | 0.00 | 0.00 | 32 | 1001.9 |
| 20260906010542 | 84 | 30 | 0.0 | 0.0 | 0.00 | 0.00 | 0.00 | 33 | 1016.8 |
| 20260906010055 | 84 | 30 | 0.0 | 0.0 | 0.00 | 0.00 | 0.00 | 30 | 1001.9 |
| 20260906010037 | 84 | 30 | 0.0 | 0.0 | 0.00 | 0.00 | 0.00 | 30 | 1016.8 |
| 20260906005622 | 84 | 30 | 0.0 | 0.0 | 0.00 | 0.00 | 0.00 | 32 | 1002.0 |
| 20260906005528 | 85 | 30 | 0.0 | 0.0 | 0.00 | 0.00 | 0.00 | 31 | 1016.8 |
| 20260906005054 | 85 | 30 | 0.0 | 0.0 | 0.00 | 0.00 | 0.00 | 30 | 1016.8 |
| 20260906005026 | 85 | 30 | 0.0 | 0.0 | 0.00 | 0.00 | 0.00 | 30 | 1002.0 |
| 20260906004632 | 85 | 30 | 0.0 | 0.0 | 0.00 | 0.00 | 0.00 | 30 | 1002.0 |
| 20260906004530 | 86 | 30 | 0.0 | 0.0 | 0.00 | 0.00 | 0.00 | 30 | 1016.8 |
| 20260906004053 | 86 | 30 | 0.0 | 0.0 | 0.00 | 0.00 | 0.00 | 30 | 1016.9 |
| 20260906004003 | 86 | 30 | 0.0 | 0.0 | 0.00 | 0.00 | 0.00 | 30 | 1002.1 |
| 20260906003614 | 86 | 30 | 0.0 | 0.0 | 0.00 | 0.00 | 0.00 | 30 | 1002.0 |
| 20260906003526 | 87 | 30 | 0.0 | 0.0 | 0.00 | 0.00 | 0.00 | 30 | 1016.8 |
| 20260906003123 | 87 | 30 | 0.0 | 0.0 | 0.00 | 0.00 | 0.00 | 28 | 1002.0 |
| 20260906003050 | 87 | 30 | 0.0 | 0.0 | 0.00 | 0.00 | 0.00 | 28 | 1016.8 |
| 20260906002603 | 87 | 30 | 0.0 | 0.0 | 0.00 | 0.00 | 0.00 | 28 | 1002.0 |
| 20260906002546 | 88 | 30 | 0.0 | 0.0 | 0.00 | 0.00 | 0.00 | 28 | 1016.8 |
| 20260906002127 | 87 | 30 | 0.0 | 1.0 | 0.00 | 0.00 | 0.00 | 27 | 1001.9 |
| 20260906002042 | 88 | 30 | 0.0 | 1.0 | 0.00 | 0.00 | 0.00 | 26 | 1016.8 |
| 20260906001600 | 88 | 30 | 0.0 | 1.0 | 0.00 | 0.00 | 0.00 | 26 | 1001.9 |
| 20260906001538 | 88 | 30 | 0.0 | 1.0 | 0.00 | 0.00 | 0.00 | 26 | 1016.7 |
| 20260906001135 | 88 | 30 | 0.0 | 3.0 | 0.00 | 0.00 | 0.00 | 26 | 1001.9 |
| 20260906001059 | 89 | 30 | 0.0 | 3.0 | 0.00 | 0.00 | 0.00 | 25 | 1016.7 |
| 20260906000550 | 88 | 30 | 1.0 | 6.0 | 0.00 | 0.00 | 0.00 | 25 | 1001.9 |
| 20260906000533 | 89 | 34 | 2.0 | 6.0 | 0.00 | 0.00 | 0.00 | 25 | 1016.8 |
| 20260906000123 | 89 | 33 | 1.0 | 6.0 | 0.00 | 0.00 | 0.00 | 25 | 1001.7 |
| 20260905235637 | 89 | 31 | 0.0 | 3.0 | 0.00 | 0.00 | 0.00 | 24 | 1001.8 |
| 20260905235540 | 90 | 355 | 1.0 | 3.0 | 0.00 | 0.00 | 0.00 | 25 | 1016.6 |
| 20260905235109 | 89 | 30 | 0.0 | 3.0 | 0.00 | 0.00 | 0.00 | 24 | 1001.7 |
| 20260905235037 | 90 | 30 | 1.0 | 3.0 | 0.00 | 0.00 | 0.00 | 24 | 1016.6 |
| 20260905234548 | 89 | 30 | 0.0 | 4.0 | 0.00 | 0.00 | 0.00 | 25 | 1001.7 |
| 20260905234531 | 90 | 30 | 0.0 | 4.0 | 0.00 | 0.00 | 0.00 | 25 | 1016.6 |
| 20260905234115 | 89 | 36 | 0.0 | 4.0 | 0.00 | 0.00 | 0.00 | 25 | 1001.7 |
| 20260905234035 | 90 | 40 | 1.0 | 4.0 | 0.00 | 0.00 | 0.00 | 24 | 1016.6 |
| 20260905233625 | 90 | 26 | 1.0 | 3.0 | 0.00 | 0.00 | 0.00 | 24 | 1001.7 |
| 20260905233531 | 90 | 26 | 1.0 | 3.0 | 0.00 | 0.00 | 0.00 | 24 | 1016.6 |
| 20260905233153 | 90 | 314 | 0.0 | 3.0 | 0.00 | 0.00 | 0.00 | 23 | 1001.5 |
| 20260905233056 | 90 | 314 | 1.0 | 3.0 | 0.00 | 0.00 | 0.00 | 23 | 1016.5 |
| 20260905232604 | 90 | 42 | 1.0 | 3.0 | 0.00 | 0.00 | 0.00 | 24 | 1001.6 |
| 20260905232533 | 90 | 42 | 1.0 | 3.0 | 0.00 | 0.00 | 0.00 | 23 | 1016.4 |
| 20260905232053 | 91 | 317 | 1.0 | 2.0 | 0.00 | 0.00 | 0.00 | 23 | 1016.6 |
| 20260905232001 | 90 | 317 | 1.0 | 3.0 | 0.00 | 0.00 | 0.00 | 23 | 1001.6 |
| 20260905231611 | 90 | 23 | 0.0 | 3.0 | 0.00 | 0.00 | 0.00 | 23 | 1001.6 |
| 20260905231549 | 91 | 23 | 1.0 | 3.0 | 0.00 | 0.00 | 0.00 | 23 | 1016.5 |
| 20260905231045 | 91 | 310 | 1.0 | 3.0 | 0.00 | 0.00 | 0.00 | 22 | 1016.6 |
| 20260905231003 | 90 | 279 | 0.0 | 3.0 | 0.00 | 0.00 | 0.00 | 22 | 1001.5 |
| 20260905230615 | 91 | 295 | 0.0 | 4.0 | 0.00 | 0.00 | 0.00 | 22 | 1001.6 |
| 20260905230540 | 91 | 311 | 1.0 | 4.0 | 0.00 | 0.00 | 0.00 | 22 | 1016.6 |
| 20260905230036 | 91 | 97 | 1.0 | 6.0 | 0.00 | 0.00 | 0.00 | 22 | 1016.6 |
| 20260905230009 | 91 | 97 | 0.0 | 6.0 | 0.00 | 0.00 | 0.00 | 21 | 1001.5 |
| 20260905225612 | 91 | 36 | 1.0 | 6.0 | 0.00 | 0.00 | 0.00 | 21 | 1001.5 |
| 20260905225533 | 92 | 29 | 2.0 | 6.0 | 0.00 | 0.00 | 0.00 | 22 | 1016.5 |
| 20260905225028 | 92 | 30 | 2.0 | 4.0 | 0.00 | 0.00 | 0.00 | 21 | 1016.5 |
| 20260905225003 | 92 | 30 | 1.0 | 3.0 | 0.00 | 0.00 | 0.00 | 21 | 1001.4 |
| 20260905224616 | 92 | 68 | 0.0 | 4.0 | 0.00 | 0.00 | 0.00 | 21 | 1001.4 |
| 20260905224552 | 92 | 68 | 1.0 | 5.0 | 0.00 | 0.00 | 0.00 | 21 | 1016.5 |
| 20260905224125 | 92 | 68 | 1.0 | 5.0 | 0.00 | 0.00 | 0.00 | 21 | 1001.4 |
| 20260905224040 | 93 | 68 | 2.0 | 5.0 | 0.00 | 0.00 | 0.00 | 21 | 1016.5 |
| 20260905223535 | 93 | 26 | 2.0 | 4.0 | 0.00 | 0.00 | 0.00 | 22 | 1016.6 |
| 20260905223512 | 93 | 42 | 1.0 | 3.0 | 0.00 | 0.00 | 0.00 | 22 | 1001.5 |
| 20260905223117 | 93 | 32 | 2.0 | 5.0 | 0.00 | 0.00 | 0.00 | 22 | 1001.5 |
| 20260905223100 | 93 | 32 | 2.0 | 5.0 | 0.00 | 0.00 | 0.00 | 22 | 1016.6 |
| 20260905222629 | 93 | 202 | 1.0 | 5.0 | 0.00 | 0.00 | 0.00 | 20 | 1001.5 |
| 20260905222536 | 93 | 308 | 1.0 | 5.0 | 0.00 | 0.00 | 0.00 | 21 | 1016.6 |
| 20260905222044 | 93 | 24 | 1.0 | 5.0 | 0.00 | 0.00 | 0.00 | 22 | 1016.6 |
| 20260905222012 | 93 | 24 | 0.0 | 5.0 | 0.00 | 0.00 | 0.00 | 22 | 1001.5 |
| 20260905221616 | 93 | 302 | 1.0 | 5.0 | 0.00 | 0.00 | 0.00 | 21 | 1001.5 |
| 20260905221537 | 93 | 291 | 2.0 | 5.0 | 0.00 | 0.00 | 0.00 | 22 | 1016.6 |
| 20260905221032 | 93 | 44 | 2.0 | 4.0 | 0.00 | 0.00 | 0.00 | 23 | 1016.6 |
| 20260905221008 | 92 | 40 | 1.0 | 4.0 | 0.00 | 0.00 | 0.00 | 23 | 1001.4 |
| 20260905220617 | 92 | 24 | 0.0 | 4.0 | 0.00 | 0.00 | 0.00 | 23 | 1001.5 |
| 20260905220556 | 92 | 5 | 0.0 | 4.0 | 0.00 | 0.00 | 0.00 | 23 | 1016.7 |